Location: Walnut Point State Park
(39.6958°N, 88.0345°W)
Time: 06:45:47
(UTC-05:00)

Amateur Radio Satellites - All Passes

Search period start: 23 July 2014 06:15
Search period end: 24 July 2014 06:15
Location: Walnut Point State Park, 39.6958°N, 88.0345°W

Satellite Date Start Highest point End Downlink Frequencies (MHz)
Time Altitude Azimuth
JAS-2 23 Jul 06:17:49 06:22:48 25° 91° (E) 06:27:21 435.800 - 435.900 CW/SSB, 435.910 FM
Uosat F 23 Jul 06:21:40 06:25:32 23° 295° (WNW) 06:29:23 435.120 FM
STRAND 1 23 Jul 06:27:11 06:32:12 54° 72° (ENE) 06:37:13 ?
Hamsat 23 Jul 06:34:41 06:38:49 46° 99° (E) 06:42:58 145.90 MHz
KITSAT 1 23 Jul 06:39:26 06:46:30 35° 107° (ESE) 06:53:34 435.175 FM
Lituanica SAT-1 23 Jul 06:42:57 06:45:03 37° 34° (NNE) 06:47:08 437.275 MHz beacon
MaSat-1 23 Jul 07:20:11 07:24:30 24° 53° (NE) 07:28:44 437.345 MHz
Oscar 10/S400 23 Jul 07:30:36 08:41:14 23° 256° (WSW) 11:14:08 145.825 - 145.975 CW/USB, Beacon 145.810 USB
ISS 23 Jul 07:37:34 07:40:32 28° 27° (NNE) 07:43:30 145.800 FM
AO-7 23 Jul 07:54:16 07:58:42 16° 312° (NW) 08:03:08 29.400 - 29.500 MHz
JAS-2 23 Jul 08:02:15 08:08:11 44° 292° (WNW) 08:13:28 435.800 - 435.900 CW/SSB, 435.910 FM
STRAND 1 23 Jul 08:08:23 08:11:42 17° 268° (W) 08:15:01 ?
Hamsat 23 Jul 08:11:56 08:14:24 15° 294° (WNW) 08:16:53 145.90 MHz
SO-67 23 Jul 08:17:27 08:20:54 62° 284° (WNW) 08:24:20 435.3500 MHz FM
KITSAT 1 23 Jul 08:33:40 08:41:33 54° 306° (NW) 08:49:29 435.175 FM
MaSat-1 23 Jul 08:57:01 09:02:10 49° 251° (WSW) 09:07:04 437.345 MHz
PANSAT 23 Jul 08:58:15 09:00:26 15° 175° (S) 09:02:38 not established
Saudisat 1A 23 Jul 09:09:10 09:13:31 61° 118° (ESE) 09:17:54 436.775 MHz
ISS 23 Jul 09:14:11 09:17:20 37° 224° (SW) 09:20:27 145.800 FM
HO-68 23 Jul 09:49:50 09:56:55 61° 102° (ESE) 10:03:56 435.675 MHz FM
Sapphire 23 Jul 09:52:25 09:55:13 14° 42° (NE) 09:58:01 437.095 MHz 1200 baud AX-25 AFSK
PCSat 23 Jul 10:25:28 10:29:56 25° 49° (NE) 10:34:22 145.825 MHz
KITSAT 1 23 Jul 10:34:26 10:39:02 16° 331° (NNW) 10:43:40 435.175 FM
PANSAT 23 Jul 10:37:56 10:39:56 14° 188° (S) 10:41:56 not established
Oscar 11 23 Jul 10:48:30 10:52:51 83° 284° (WNW) 10:57:11 145.825 FM, Beacon 2401.500 USB
Saudisat 1A 23 Jul 10:50:34 10:53:30 17° 317° (NW) 10:56:26 436.775 MHz
FUNcube-1 23 Jul 10:52:27 10:56:18 36° 98° (E) 11:00:10 145.950 - 145.970 MHz USB
Sapphire 23 Jul 11:34:05 11:39:32 80° 61° (ENE) 11:44:57 437.095 MHz 1200 baud AX-25 AFSK
HO-68 23 Jul 11:38:26 11:44:06 26° 300° (WNW) 11:49:45 435.675 MHz FM
PCSat 23 Jul 12:08:22 12:13:35 49° 248° (WSW) 12:18:45 145.825 MHz
FUNcube-1 23 Jul 12:29:40 12:32:27 18° 293° (WNW) 12:35:13 145.950 - 145.970 MHz USB
Oscar 19 23 Jul 12:58:22 13:02:58 35° 69° (ENE) 13:07:36 437.125 CW, 437.150 USB
JAS-1B 23 Jul 13:07:27 13:14:02 24° 54° (NE) 13:21:09 435.800 - 435.900 CW/SSB
Sapphire 23 Jul 13:19:56 13:22:12 13° 258° (WSW) 13:24:28 437.095 MHz 1200 baud AX-25 AFSK
RS-15 23 Jul 13:22:52 13:32:23 34° 106° (ESE) 13:41:39 29.354 - 29.394 USB, Beacon 29.352 USB
Oscar 16 23 Jul 13:25:05 13:30:09 67° 74° (ENE) 13:35:15 437.025 USB, Beacon 2401.1428
ITAMSAT 1 23 Jul 13:33:25 13:38:09 36° 69° (ENE) 13:42:54 435.822 SSB
Gurwin Techsat 1B 23 Jul 13:40:07 13:43:32 18° 63° (ENE) 13:46:58 435.225 FM
AO-27 23 Jul 13:50:34 13:55:38 53° 72° (ENE) 14:00:43 436.795 MHz FM
Uribyol 2 23 Jul 13:54:02 13:59:09 60° 73° (ENE) 14:04:17 436.500 FM
AO-Echo 23 Jul 14:02:34 14:07:47 69° 74° (ENE) 14:13:06 ?
SO-50 23 Jul 14:11:26 14:15:53 80° 120° (ESE) 14:20:26 436.795 FM
KITSAT 1 23 Jul 14:33:08 14:38:31 19° 33° (NNE) 14:43:52 435.175 FM
Oscar 19 23 Jul 14:38:07 14:42:21 26° 265° (W) 14:46:36 437.125 CW, 437.150 USB
JAS-1B 23 Jul 14:54:47 15:03:10 87° 255° (WSW) 15:12:54 435.800 - 435.900 CW/SSB
TMSAT-1 23 Jul 14:57:20 15:02:34 64° 73° (ENE) 15:07:50 436.925 FM
AO-7 23 Jul 15:05:38 15:12:49 34° 59° (ENE) 15:20:01 29.400 - 29.500 MHz
UOSAT-12 23 Jul 15:07:30 15:10:55 21° 111° (ESE) 15:14:24 437.025 FM, 437.400 FM
Oscar 16 23 Jul 15:07:32 15:09:58 13° 270° (W) 15:12:24 437.025 USB, Beacon 2401.1428
ITAMSAT 1 23 Jul 15:13:20 15:17:41 27° 265° (W) 15:22:03 435.822 SSB
Gurwin Techsat 1B 23 Jul 15:17:45 15:22:59 60° 259° (W) 15:28:16 435.225 FM
AO-27 23 Jul 15:31:58 15:35:27 18° 268° (W) 15:38:56 436.795 MHz FM
RS-15 23 Jul 15:32:53 15:43:57 66° 306° (NW) 15:54:50 29.354 - 29.394 USB, Beacon 29.352 USB
Uribyol 2 23 Jul 15:35:56 15:39:00 16° 268° (W) 15:42:05 436.500 FM
AO-Echo 23 Jul 15:44:19 15:47:02 14° 270° (W) 15:49:45 ?
SO-50 23 Jul 15:54:30 15:57:02 15° 319° (NW) 15:59:35 436.795 FM
Uosat F 23 Jul 15:54:37 15:59:31 53° 72° (ENE) 16:04:25 435.120 FM
OPAL 23 Jul 16:25:36 16:30:15 36° 100° (E) 16:34:56 ?
KITSAT 1 23 Jul 16:27:31 16:35:35 67° 57° (ENE) 16:43:35 435.175 FM
JAS-2 23 Jul 16:29:48 16:33:59 16° 56° (ENE) 16:38:04 435.800 - 435.900 CW/SSB, 435.910 FM
TMSAT-1 23 Jul 16:39:59 16:42:55 15° 269° (W) 16:45:53 436.925 FM
UOSAT-12 23 Jul 16:46:23 16:50:45 43° 308° (NW) 16:55:15 437.025 FM, 437.400 FM
JAS-1B 23 Jul 16:49:31 16:55:03 19° 276° (W) 17:01:04 435.800 - 435.900 CW/SSB
AO-7 23 Jul 16:57:01 17:05:11 57° 257° (WSW) 17:13:24 29.400 - 29.500 MHz
Hamsat 23 Jul 17:27:39 17:31:16 29° 70° (ENE) 17:34:54 145.90 MHz
Uosat F 23 Jul 17:35:21 17:38:35 17° 268° (W) 17:41:51 435.120 FM
Saudisat 1A 23 Jul 17:36:49 17:40:58 38° 52° (NE) 17:45:05 436.775 MHz
RS-15 23 Jul 17:50:35 17:58:55 24° 335° (NNW) 18:07:15 29.354 - 29.394 USB, Beacon 29.352 USB
Oscar 10/S400 23 Jul 17:54:40 18:04:59 15° 143° (SE) 18:15:07 145.825 - 145.975 CW/USB, Beacon 145.810 USB
OPAL 23 Jul 18:04:49 18:08:57 26° 296° (WNW) 18:13:08 ?
JAS-2 23 Jul 18:10:01 18:17:51 74° 73° (ENE) 18:25:25 435.800 - 435.900 CW/SSB, 435.910 FM
KITSAT 1 23 Jul 18:23:58 18:30:19 26° 255° (WSW) 18:36:38 435.175 FM
STRAND 1 23 Jul 18:39:39 18:43:17 19° 93° (E) 18:46:53 ?
SO-67 23 Jul 18:49:53 18:53:03 34° 73° (ENE) 18:56:13 435.3500 MHz FM
Hamsat 23 Jul 19:04:04 19:07:15 21° 266° (W) 19:10:27 145.90 MHz
Saudisat 1A 23 Jul 19:16:58 19:20:18 21° 249° (WSW) 19:23:37 436.775 MHz
JAS-2 23 Jul 19:57:30 20:03:20 23° 269° (W) 20:09:04 435.800 - 435.900 CW/SSB, 435.910 FM
RS-15 23 Jul 20:09:45 20:16:56 19° 12° (NNE) 20:24:12 29.354 - 29.394 USB, Beacon 29.352 USB
HO-68 23 Jul 20:17:29 20:24:07 42° 65° (ENE) 20:30:45 435.675 MHz FM
STRAND 1 23 Jul 20:17:48 20:22:42 47° 289° (WNW) 20:27:34 ?
SO-67 23 Jul 20:24:50 20:26:15 12° 268° (W) 20:27:41 435.3500 MHz FM
Oscar 11 23 Jul 21:42:33 21:46:49 69° 75° (ENE) 21:51:07 145.825 FM, Beacon 2401.500 USB
FUNcube-1 23 Jul 21:48:20 21:52:05 28° 70° (ENE) 21:55:47 145.950 - 145.970 MHz USB
HO-68 23 Jul 22:05:19 22:11:49 36° 262° (W) 22:18:20 435.675 MHz FM
RS-15 23 Jul 22:23:00 22:33:22 43° 44° (NE) 22:43:59 29.354 - 29.394 USB, Beacon 29.352 USB
SO-50 23 Jul 22:43:44 22:48:25 57° 55° (NE) 22:53:09 436.795 FM
MaSat-1 23 Jul 22:47:41 22:51:31 85° 295° (WNW) 22:56:04 437.345 MHz
FUNcube-1 23 Jul 23:24:53 23:28:27 24° 265° (W) 23:31:59 145.950 - 145.970 MHz USB
UOSAT-12 23 Jul 23:37:20 23:40:40 19° 43° (NE) 23:43:58 437.025 FM, 437.400 FM
Lituanica SAT-1 24 Jul 00:16:57 00:19:05 86° 318° (NW) 00:21:14 437.275 MHz beacon
ISS 24 Jul 00:21:38 00:22:46 11° 128° (SE) 00:23:54 145.800 FM
SO-50 24 Jul 00:25:34 00:28:33 17° 251° (WSW) 00:31:33 436.795 FM
MaSat-1 24 Jul 00:29:00 00:29:51 10° 317° (NW) 00:30:42 437.345 MHz
RS-15 24 Jul 00:35:22 00:46:07 60° 247° (WSW) 00:57:17 29.354 - 29.394 USB, Beacon 29.352 USB
Sapphire 24 Jul 00:36:43 00:37:40 10° 101° (ESE) 00:38:38 437.095 MHz 1200 baud AX-25 AFSK
PCSat 24 Jul 01:07:00 01:11:16 24° 107° (ESE) 01:15:33 145.825 MHz
Oscar 19 24 Jul 01:12:23 01:14:43 13° 90° (E) 01:17:03 437.125 CW, 437.150 USB
UOSAT-12 24 Jul 01:16:34 01:21:15 63° 242° (WSW) 01:25:51 437.025 FM, 437.400 FM
Oscar 16 24 Jul 01:38:11 01:42:26 25° 95° (E) 01:46:39 437.025 USB, Beacon 2401.1428
ITAMSAT 1 24 Jul 01:48:50 01:51:13 13° 90° (E) 01:53:36 435.822 SSB
ISS 24 Jul 01:55:43 01:59:03 74° 323° (NW) 02:02:25 145.800 FM
AO-27 24 Jul 02:05:22 02:09:10 20° 93° (E) 02:12:55 436.795 MHz FM
Uribyol 2 24 Jul 02:08:24 02:12:25 23° 94° (E) 02:16:24 436.500 FM
AO-Echo 24 Jul 02:11:45 02:15:51 24° 94° (E) 02:19:49 ?
Sapphire 24 Jul 02:14:50 02:20:14 89° 117° (ESE) 02:25:41 437.095 MHz 1200 baud AX-25 AFSK
JAS-1B 24 Jul 02:42:49 02:51:27 37° 92° (E) 02:59:01 435.800 - 435.900 CW/SSB
PCSat 24 Jul 02:49:13 02:54:23 45° 304° (NW) 02:59:35 145.825 MHz
Oscar 19 24 Jul 02:49:24 02:54:32 70° 286° (WNW) 02:59:40 437.125 CW, 437.150 USB
TMSAT-1 24 Jul 03:14:34 03:19:03 27° 95° (E) 03:23:29 436.925 FM
Oscar 16 24 Jul 03:17:08 03:21:50 37° 291° (WNW) 03:26:32 437.025 USB, Beacon 2401.1428
ITAMSAT 1 24 Jul 03:26:02 03:31:12 70° 286° (WNW) 03:36:20 435.822 SSB
ISS 24 Jul 03:34:01 03:36:16 17° 342° (NNW) 03:38:31 145.800 FM
Gurwin Techsat 1B 24 Jul 03:34:46 03:40:02 59° 101° (E) 03:45:15 435.225 FM
OPAL 24 Jul 03:39:49 03:44:41 60° 71° (ENE) 03:49:34 ?
AO-27 24 Jul 03:43:56 03:48:53 46° 289° (WNW) 03:53:49 436.795 MHz FM
Uribyol 2 24 Jul 03:47:12 03:52:02 41° 290° (WNW) 03:56:50 436.500 FM
AO-Echo 24 Jul 03:49:59 03:54:43 38° 291° (WNW) 03:59:18 ?
Sapphire 24 Jul 04:01:12 04:04:25 16° 317° (NW) 04:07:38 437.095 MHz 1200 baud AX-25 AFSK
Uosat F 24 Jul 04:04:24 04:07:38 17° 92° (E) 04:10:52 435.120 FM
JAS-1B 24 Jul 04:32:53 04:42:11 55° 293° (WNW) 04:50:22 435.800 - 435.900 CW/SSB
TMSAT-1 24 Jul 04:54:12 04:58:59 36° 291° (WNW) 05:03:46 436.925 FM
AO-7 24 Jul 04:59:22 05:07:30 54° 102° (ESE) 05:15:33 29.400 - 29.500 MHz
ISS 24 Jul 05:13:08 05:14:06 11° 2° (N) 05:15:05 145.800 FM
Gurwin Techsat 1B 24 Jul 05:16:01 05:19:30 18° 297° (WNW) 05:22:58 435.225 FM
OPAL 24 Jul 05:21:16 05:23:57 15° 266° (W) 05:26:38 ?
Uosat F 24 Jul 05:41:51 05:46:43 52° 288° (WNW) 05:51:33 435.120 FM
STRAND 1 24 Jul 05:54:40 05:58:56 27° 66° (ENE) 06:03:13 ?
